User: anonymous   Login
Location: ?????????
(54.7630°N, 39.4991°E)
Time: 19:18:15
(UTC+00:00)
Language:

Feng Yun 1-1 Rocket - Orbit

View from above orbital plane
View from above orbital plane
View from above satellite
View from above satellite

Ground track
Ground track

The orbit is defined by the following mean orbital elements,

1 19468U          26162.60269501 +.00000000 +00000-0 +66501-5 0 00000
2 19468  98.9577 211.3505 0070365 307.1960 171.2020 14.03766052    06
Epoch (UTC): 11 June 2026 14:27:52
Eccentricity: 0.0070365
inclination: 98.9577°
perigee height: 830 km
apogee height: 932 km
right ascension of ascending node: 211.3505°
argument of perigee: 307.1960°
revolutions per day: 14.03766052
mean anomaly at epoch: 171.2020°

The dashed part of the orbit path shows where the satellite is in the earth's shadow,  

DLR